OBJECT AG, 57196

Orbit data source: Space-Track

You're viewing an uncataloged RSO

Recently launched and/or uncataloged RSOs may have evolving metadata. Metadata may include the following, but is not limited to: Owner, Manufacturer, Bus, Motor, and Mission.

OBJECT AG, 57196 is a satellite in SSO that was launched on Tue, 27 Jun 2023 UTC via a SOYUZ-2-1B launch vehicle from the Vostochny Cosmodrome (VOSTO). Unknown objects in Earth's orbit typically refer to objects detected orbiting the Earth but have not yet been identified or cataloged. These objects could be anything from previously untracked satellites, spent rocket stages, debris from satellite collisions, or even natural meteoroids temporarily captured by Earth's gravity.

Loading next visibility...
Identifier
57196, 2023-091AG
Orbit
SSO
Country
Flag of TBDTBD
Related business
Flag of RUMoscow State Technical University of Civil Aviation (RU)
Manufacturer
MGTU Bauman
Mission
Operational Amateur Technology
Bus & Motor
CUBESAT 6U?, Unknown motor
Mass
10 kg wet, 10 kg dry
Launch date (UTC)
2023-06-27 (3 years ago)
Launch vehicle
SOYUZ-2-1B
Launch site
Vostochny Cosmodrome (VOSTO)
Object type
Unknown
Shape & HBR
Box, 0.2 m
Radar Cross Section
0.080 m², Medium (>0.1 m² and < 1m²)

Expand to show TLE details & history
Last TLE update: 13 hours ago

TLE from 13 hours ago
0 OBJECT AG
1 57196U 23091AG  26235.60618293  .00012222  00000-0  38070-3 0  9996
2 57196  97.5038 303.6093 0007412 190.7510 169.3575 15.33394506174853
Epoch: 2026-08-23T14:32Z
TLE epoch observation values (Epoch: 2026-08-23T14:32:54.205Z)
Latitude
0.00001°
Longitude
113.48362°
Altitude
473.786 km
Speed
7.626 km/s
True Right ascension
20h 14m 26s
True Declination
0° 00' 00"
Sunlit
Object was in full shadow at epoch
Visualization orbit readout
Latitude
Unknown
Longitude
Unknown
Altitude
Unknown
Speed
Unknown
Apparent Right ascension
Unknown
Apparent Declination
Unknown
Sunlit
N/A
Visualization observer readout
Local Sidereal Time
18:12:55
Azimuth
Unknown
Elevation
Unknown
Doppler factor
Unknown
Orbital elements
Apogee altitude
467.716 km
Perigee altitude
457.575 km
Semi-major axis
6,840.783 km
Eccentricity
0.00074
Inclination
97.5038°
RAAN
303.6093°
Arg. of periapsis
190.751°
True anomaly
169.37317°
Mean anomaly
169.3575°
Eccentric anomaly
169.36534°
Mean motion
3.83605 °/min
Orbital period
93.85 mins
BSTAR
0.0003807
Loading maneuver chart data...
Computing Atmospheric mass density...
Loading historical data...
Loading historical data...
Loading historical data...
Loading historical data...
Loading historical data...
Loading historical data...
Loading historical data...

Documentation

Showing up to 5 results
|